Location: Bacharowice
(49.9333°N, 19.5833°E)
Time: 06:45:24
(UTC+00:00)

Cosmos 2344 - Pass Details

Date: 03 October 2021
Orbit: 1235 x 3007 km, 63.3° (Epoch: 19 October)

Event Time Altitude Azimuth Distance (km) Brightness Sun altitude
Rises 22:17:33 0° 316° (NW) 4,587 7.0 -44.3°
Reaches altitude 10° 22:20:19 10° 310° (NW) 3,757 6.4 -44.3°
Enters shadow 22:25:25 35° 286° (WNW) 2,600 5.1 -44.4°
